Indian Springs, NV

2:07 AM PDT on April 24, 2017 (GMT -0700)
Indian Springs Air Force Auxiliary

Weather History for KINS - February, 2013

Change the Weather History Date:

Friday, February 1, 2013

  Actual Average (KDRA) Record (KDRA)
Temperature  
Mean Temperature 46 °F -  
Max Temperature 63 °F 54 °F 77 °F (2003)
Min Temperature 30 °F 33 °F 14 °F (1985)
Degree Days  
Heating Degree Days 18    
Moisture  
Dew Point 29 °F    
Average Humidity 56    
Maximum Humidity 85    
Minimum Humidity 25    
Precipitation  
Precipitation 0.00 in - - ()
Sea Level Pressure  
Sea Level Pressure 30.25 in    
Wind  
Wind Speed 2 mph (SW)    
Max Wind Speed 14 mph    
Max Gust Speed -    
Visibility 10 miles    
Events      
Averages and records for this station are not official NWS values.
T = Trace of Precipitation, MM = Missing Value Source: NWS Daily Summary

Daily Weather History Graph

Daily Weather History Graph

Search for Another Location

Airport or City:

Trip Planner

Search our weather history database for the weather conditions in past years. The results will help you decide how hot, cold, wet, or windy it might be!

Date:

Astronomy

Feb. 01, 2013 Rise Set
Actual Time 6:44 AM PST 5:08 PM PST
Civil Twilight 6:16 AM PST 5:36 PM PST
Nautical Twilight 5:46 AM PST 6:07 PM PST
Astronomical Twilight 5:15 AM PST 6:37 PM PST
Moon 11:08 PM PST (2/1) 9:30 AM PST (2/1)
Length of Visible Light 11h 19m
Length of Day
10h 24m
Waning Gibbous, 69% of the Moon is Illuminated
Feb 1
Waning Gibbous
Feb 3
Last Quarter
Feb 9
New
Feb 17
First Quarter
Feb 25
Full

Hourly Weather History & Observations

Time (PST) Temp. Windchill Dew Point Humidity Pressure Visibility Wind Dir Wind Speed Gust Speed Precip Events Conditions
12:58 AM 36.3 °F - 29.7 °F 77% 30.24 in 10.0 mi ESE 2.3 mph - N/A   Clear
1:58 AM 35.4 °F - 29.1 °F 78% 30.24 in 10.0 mi West 2.3 mph - N/A   Clear
2:58 AM 34.0 °F - 28.2 °F 79% 30.23 in 10.0 mi Calm Calm - N/A   Clear
3:58 AM 34.3 °F - 28.0 °F 78% 30.23 in 10.0 mi Calm Calm - N/A   Clear
4:58 AM 33.4 °F - 28.0 °F 81% 30.23 in 10.0 mi Calm Calm - N/A   Clear
5:58 AM 32.2 °F - 27.3 °F 82% 30.24 in 10.0 mi West 2.3 mph - N/A   Clear
6:58 AM 30.0 °F - 26.1 °F 85% 30.25 in 10.0 mi WNW 2.3 mph - N/A   Clear
7:58 AM 34.3 °F - 27.9 °F 77% 30.27 in 10.0 mi Calm Calm - N/A   Clear
8:58 AM 40.5 °F - 30.7 °F 68% 30.28 in 10.0 mi WNW 2.3 mph - N/A   Clear
9:58 AM 46.0 °F - 31.3 °F 56% 30.28 in 10.0 mi Calm Calm - N/A   Clear
10:58 AM 51.4 °F - 31.6 °F 47% 30.28 in 10.0 mi Calm Calm - N/A   Clear
11:58 AM 56.1 °F - 30.4 °F 38% 30.25 in 10.0 mi Calm Calm - N/A   Clear
12:58 PM 58.8 °F - 30.2 °F 34% 30.23 in 10.0 mi Calm Calm - N/A   Clear
1:58 PM 61.5 °F - 29.3 °F 30% 30.21 in 10.0 mi WSW 2.3 mph - N/A   Clear
2:58 PM 63.3 °F - 27.1 °F 25% 30.20 in 10.0 mi Calm Calm - N/A   Clear
3:58 PM 63.0 °F - 26.1 °F 25% 30.20 in 10.0 mi Calm Calm - N/A   Clear
4:58 PM 60.8 °F - 27.3 °F 28% 30.19 in 10.0 mi South 2.3 mph - N/A   Clear
5:58 PM 54.5 °F - 30.9 °F 41% 30.21 in 10.0 mi East 13.8 mph - N/A   Clear
6:58 PM 51.3 °F - 26.8 °F 39% 30.24 in 10.0 mi SE 5.8 mph - N/A   Clear
7:58 PM 48.9 °F - 27.0 °F 43% 30.27 in 10.0 mi SW 4.6 mph - N/A   Clear
8:58 PM 46.0 °F 43.9 °F 26.8 °F 47% 30.29 in 10.0 mi WSW 4.6 mph - N/A   Clear
9:58 PM 43.9 °F - 30.2 °F 59% 30.30 in 10.0 mi Calm Calm - N/A   Clear
10:58 PM 42.1 °F - 28.8 °F 59% 30.30 in 10.0 mi Calm Calm - N/A   Clear
11:58 PM 41.2 °F - 30.6 °F 66% 30.30 in 10.0 mi East 2.3 mph - N/A   Clear